Location: Barbiano
(44.6667°N, 10.2333°E)
Time: 14:30:15
(UTC+00:00)

Daily predictions for brighter satellites

Satellite Brightness Start Highest point End
(mag) Time Altitude Azimuth Time Altitude Azimuth Time Altitude Azimuth
SPOT 1/Viking Rocket 3.7 19:33:06 10° SSE 19:38:10 62° ENE 19:43:16 10° N
Cosmos 1656 3.7 19:36:39 10° NNW 19:42:09 83° ENE 19:47:42 10° SSE
Cosmos 1452 Rocket 3.5 19:40:50 10° S 19:46:03 69° ESE 19:51:18 10° NNE
ERS-1 Rocket 4.4 19:42:58 10° ESE 19:46:55 24° ENE 19:50:52 10° NNE
ATLAS 5 CENTAUR R/B 3.6 19:34:09 10° NW 19:47:01 62° WSW 19:50:54 10° SSE
MetOp-B 4.4 19:43:04 10° SSE 19:48:15 55° ENE 19:53:30 10° N
Cosmos 1110 Rocket 4.3 19:44:38 10° S 19:49:39 47° ESE 19:54:44 10° NNE
X-37B 0.3 19:48:33 10° W 19:51:20 70° SSW 19:54:07 10° ESE
SL-8 R/B 3.8 19:51:47 10° WNW 19:56:36 75° SSW 20:01:22 10° ESE
Cosmos 2228 3.7 19:54:46 10° N 19:58:45 38° ENE 20:02:34 11° SE
Cosmos 1697 Rocket 2.9 19:57:18 10° NNW 20:02:53 60° ENE 20:08:06 12° SE
Cosmos 1980 Rocket 3.3 19:58:11 10° N 20:03:19 33° NE 20:08:21 10° ESE
SL-16 R/B 4.4 20:02:35 10° NNE 20:05:03 13° NE 20:07:31 10° ENE
ATLAS 5 CENTAUR R/B 3.0 20:09:31 13° ESE 20:10:08 13° ESE 20:11:57 10° E
Cosmos 2369 4.4 20:06:16 10° NNW 20:11:44 42° ENE 20:16:35 13° SE
Cosmos 1408 4.4 20:14:47 12° ESE 20:15:58 14° E 20:17:50 10° NE
Resurs 01 Rocket 2.5 20:11:53 10° S 20:16:10 48° W 20:20:30 10° NNW
Cosmos 2344 4.5 20:08:14 10° NW 20:17:02 66° NE 20:28:17 13° SE
COSMOS 2406 3.4 20:14:08 10° S 20:19:43 54° ESE 20:25:19 10° NNE
Cosmos 2184 Rocket 4.0 20:18:38 10° N 20:24:51 89° E 20:31:06 10° S
Cosmos 1833 Rocket 2.8 20:19:44 10° SSW 20:25:21 82° WNW 20:31:00 10° NNE
H-2A R/B 3.6 20:22:26 10° N 20:26:36 40° WNW 20:30:48 10° SW
Cosmos 1867 4.1 20:25:04 10° NNW 20:30:24 49° NE 20:34:38 16° ESE
Cosmos 1536 Rocket 4.2 20:26:46 10° SSW 20:31:00 55° W 20:35:18 10° N
Cosmos 1703 3.6 20:28:20 10° SSW 20:32:09 64° W 20:35:59 10° N
CARTOSAT-1 3.9 20:29:15 11° S 20:33:24 64° W 20:37:42 10° NNW
Cosmos 1825 4.3 20:33:23 11° E 20:34:05 12° E 20:35:30 10° ENE
USA 245 3.1 20:32:00 14° S 20:35:18 76° WSW 20:38:32 10° NNW
Cosmos 1606 Rocket 3.6 20:32:29 10° N 20:36:48 64° E 20:39:49 19° SSE
Ariane Rocket 3.8 20:32:33 10° S 20:37:27 48° W 20:42:23 10° NNW
Cosmos 2322 Rocket 4.4 20:36:04 10° N 20:39:29 16° NE 20:42:54 10° E
CZ-4B R/B 3.6 20:43:57 10° NNW 20:46:13 21° WNW 20:48:30 10° WSW
ARIANE 5 R/B 3.2 20:44:14 21° SE 20:46:50 43° ENE 20:51:02 10° N
Terra 2.0 20:44:04 20° SSE 20:47:13 62° ENE 20:51:57 10° N
GP-B 4.4 20:43:32 10° NNE 20:47:14 26° E 20:49:01 20° ESE
SPOT 3 Rocket 4.0 20:44:20 12° S 20:49:01 59° WSW 20:54:12 10° NNW
SPOT 5 2.6 20:46:57 19° SSE 20:50:01 86° W 20:54:22 10° NNW
RESURS DK-1 4.2 20:50:19 10° NW 20:53:41 24° WSW 20:56:54 11° SSW
Cosmos 2278 4.3 20:48:12 10° NNW 20:53:43 47° ENE 20:57:25 20° ESE
USA 276 3.6 20:51:32 10° NW 20:54:20 33° NNE 20:56:54 12° ENE
Cosmos 2341 Rocket 4.3 20:49:08 10° N 20:55:18 54° ENE 20:59:17 22° SSE
FALCON 9 DEB 4.1 20:52:48 10° NW 20:55:53 38° NNE 20:58:00 17° E
Cosmos 1726 Rocket 3.5 20:54:23 10° N 20:58:43 85° E 21:01:14 25° S
Meteor 1-11 4.2 20:58:42 19° S 21:02:40 63° E 21:08:10 10° NNE
Cosmos 2082 Rocket 2.2 20:57:47 10° SSW 21:03:29 85° ESE 21:09:14 10° NNE
Helios 1A Rocket 3.3 21:04:55 22° S 21:07:23 59° WSW 21:11:28 10° NNW
Spot 2 Rocket 3.9 21:04:02 18° S 21:07:45 60° W 21:12:50 10° NNW
Cosmos 1328 4.3 21:05:03 14° SSW 21:08:26 59° W 21:12:23 10° N
ASTEX 1 3.9 21:04:39 10° NNE 21:09:27 45° E 21:11:40 28° SE
TIMED 4.4 21:07:04 18° SSW 21:10:14 78° ESE 21:14:37 10° NNE
Cosmos 2084 Rocket 4.1 21:08:29 10° NW 21:12:13 41° WSW 21:13:53 27° S
Nadezhda 1 Rocket 4.5 21:07:46 10° SSW 21:13:45 58° WNW 21:19:44 10° N
Cosmos 2360 Rocket 4.2 21:10:18 10° N 21:14:11 18° NE 21:18:03 10° E
Cosmos 1932 4.4 21:11:09 10° SSW 21:17:21 79° ESE 21:23:41 10° NE
Cosmos 2181 Rocket 4.1 21:17:08 25° SSE 21:20:39 58° E 21:26:46 10° NNE
ERS-1 Rocket 3.7 21:22:07 20° SSW 21:25:24 47° W 21:30:16 10° NNW
X-37B 2.6 21:24:28 10° WSW 21:25:27 15° WSW 21:25:27 15° WSW
Cosmos 1892 2.6 21:26:27 35° SSW 21:27:55 84° W 21:31:43 10° N
Cosmos 1602 Rocket 4.4 21:28:28 29° ESE 21:29:14 31° E 21:33:03 10° NNE
Cosmos 968 Rocket 4.3 21:39:04 10° NW 21:43:58 42° WSW 21:46:30 25° SSW
Cosmos 1503 Rocket 4.4 21:40:13 10° NNW 21:45:25 55° ENE 21:47:32 33° SE
ALOS 2 4.3 21:44:13 19° E 21:45:44 22° ENE 21:49:08 10° NNE
Cosmos 1980 Rocket 3.0 21:42:06 10° NW 21:47:24 42° WSW 21:50:07 25° SSW
Cosmos 2219 Rocket 4.5 21:46:24 10° N 21:49:53 16° NE 21:53:20 10° E
Cosmos 1408 3.9 21:48:44 21° WSW 21:50:19 32° WNW 21:53:28 10° N
SL-16 R/B 2.5 21:44:48 10° NNW 21:50:26 59° ENE 21:52:57 32° SE
Cosmos 1626 Rocket 3.4 21:50:06 46° S 21:51:22 84° E 21:55:45 10° N
Cosmos 2058 Rocket 3.8 21:47:15 10° NNW 21:51:30 45° W 21:53:20 29° SSW
ATLAS 5 CENTAUR R/B 1.9 21:50:51 14° SW 21:53:58 55° NW 21:58:03 10° NNE
Cosmos 2058 4.4 21:53:50 22° E 21:53:58 22° E 21:57:14 10° NE
USA 267 3.3 21:48:13 10° ENE 21:54:38 56° SE 21:59:31 18° SSW
SL-8 Rocket 4.2 21:48:37 10° NNW 21:54:47 67° W 21:58:01 29° SSW
In-Cosmos 22 Rocket 4.5 21:59:05 24° SSW 22:02:23 62° WNW 22:07:46 10° N
SJ 16-02 2.0 21:58:11 10° N 22:02:29 46° ENE 22:03:35 38° ESE
SL-4 R/B 2.9 22:04:44 29° ENE 22:04:44 29° ENE 22:06:43 10° ENE
Cosmos 1825 Rocket 4.5 22:04:05 31° E 22:04:22 31° E 22:08:13 10° NNE
Meteor 2-20 4.5 22:03:58 37° SSE 22:06:19 64° E 22:12:20 10° NNE
Cosmos 1825 2.9 22:08:00 37° WSW 22:08:57 47° WNW 22:12:36 10° N
Cosmos 2221 4.5 22:11:16 10° NNE 22:14:19 18° ENE 22:15:26 17° E
Cosmos 2366 rocket 4.4 22:08:57 10° NNW 22:15:08 57° W 22:18:15 29° SSW
Cosmos 1869 4.0 22:14:03 10° NNW 22:17:46 43° W 22:18:25 39° WSW
Cosmos 2322 Rocket 2.2 22:18:48 10° NNW 22:24:31 78° ENE 22:26:28 43° SE
Terra 4.1 22:22:57 11° WSW 22:25:24 16° W 22:28:15 10° NW
USA 234 3.8 22:22:09 10° ESE 22:28:31 56° NNE 22:34:55 10° NW
USA 276 3.8 22:27:14 10° WNW 22:28:42 25° WNW 22:28:42 25° WNW
Cosmos 1934 Rocket 4.4 22:26:35 10° N 22:32:31 51° ENE 22:34:46 35° SE
Meteor 2-20 Rocket 4.4 22:33:21 43° S 22:35:28 77° E 22:41:35 10° NNE
BREEZE-M DEB (TANK) 4.2 22:34:09 10° WNW 22:37:40 69° NNE 22:52:18 10° ESE
Cosmos 1633 3.4 22:39:00 37° W 22:39:12 38° WNW 22:42:28 10° N
Cosmos 1758 Rocket 4.0 22:42:24 45° WSW 22:43:20 54° WNW 22:47:40 10° N
Cosmos 2333 Rocket 3.0 22:39:51 10° NNW 22:45:25 47° ENE 22:48:05 28° ESE
Cosmos 1606 3.0 22:50:37 10° NNW 22:54:21 55° W 22:54:21 55° W
Cosmos-2242 3.6 22:50:44 10° NNW 22:54:45 42° W 22:55:10 41° WSW
ADEOS Rocket 3.5 22:53:14 39° S 22:56:25 83° WSW 23:04:14 10° NNW
ISS -1.6 23:00:48 19° ENE 23:00:48 19° ENE 23:01:55 10° ENE
Cosmos 1340 Rocket 2.7 22:58:42 84° ENE 22:58:42 84° ENE 23:02:37 10° NNE
Cosmos 2360 Rocket 2.1 22:53:16 10° NNW 22:58:59 88° WSW 23:00:32 51° SSE
Gbstr 26 Del rocket 3.2 22:59:00 36° WSW 23:00:44 76° NNW 23:05:47 10° ENE
Meteor 2-3 Rocket 4.4 23:04:49 35° ESE 23:06:04 40° E 23:11:15 10° NNE
Cosmos 2333 4.4 23:02:48 10° NNW 23:08:37 71° ENE 23:10:38 41° SE
Cosmos 1076 Rocket 4.5 23:09:44 35° E 23:09:56 35° E 23:13:55 10° NNE
BREEZE-M DEB (TANK) 3.2 23:12:24 48° ENE 23:12:24 48° ENE 23:16:22 10° ENE
SL-27 R/B 3.6 23:13:18 35° NE 23:13:18 35° NE 23:15:28 10° NNE
NOSS 3-2 (A) 3.9 23:13:40 35° ESE 23:14:04 35° ESE 23:19:30 10° NE
Cosmos 44 3.2 23:14:09 55° WSW 23:15:03 74° NW 23:19:33 10° NNE
Meteor 2-11 Rocket 4.3 23:09:22 10° N 23:15:32 89° W 23:17:23 48° S
Cosmos 1833 4.1 23:14:26 46° SW 23:16:09 82° WNW 23:21:47 10° NNE
Cosmos 972 Rocket 4.1 23:11:59 10° NNW 23:17:17 79° WSW 23:18:42 52° S
ALOS 2 3.3 23:21:37 38° WSW 23:21:49 39° W 23:25:57 10° NNW
Cosmos 1782 3.8 23:18:20 10° N 23:22:00 35° ENE 23:22:20 34° E
ERS-2 2.3 23:19:41 10° N 23:22:56 69° NNW 23:22:56 69° NNW
CENTAUR R/B 2.9 23:22:31 37° SE 23:23:24 39° ESE 23:29:36 10° NE
Cosmos 2237 Rocket 4.3 23:20:44 10° N 23:25:02 21° NE 23:29:18 10° E
Cosmos 1605 Rocket 4.0 23:19:48 10° N 23:26:16 82° E 23:28:27 44° SSE
Cosmos 2297 Rocket 4.0 23:29:19 16° ESE 23:30:27 16° E 23:33:50 10° ENE
Cosmos 2058 4.2 23:29:58 29° W 23:30:38 31° WNW 23:34:24 10° N
Cosmos 2151 3.5 23:31:03 45° ESE 23:31:16 45° E 23:35:24 10° NNE
COSMOS 2428 3.3 23:26:14 10° NNW 23:31:51 54° ENE 23:34:37 29° ESE
Cosmos 1953 Rocket 4.2 23:33:03 41° WSW 23:33:43 44° WNW 23:37:57 10° N
SL-16 R/B 3.7 23:29:50 10° NW 23:34:03 22° W 23:34:48 21° WSW
Cosmos 2219 Rocket 2.2 23:29:04 10° NNW 23:34:47 79° ENE 23:36:41 44° SE
USA 267 3.9 23:31:18 10° NE 23:37:38 55° NNW 23:43:57 10° WSW
ATLAS 5 CENTAUR R/B 4.5 23:37:56 10° NW 23:39:37 12° NNW 23:41:22 10° N
SJ 16-02 3.3 23:37:40 10° NW 23:40:31 18° W 23:40:31 18° W
SL-4 R/B 3.3 23:40:05 14° WNW 23:42:46 34° NNW 23:46:13 10° NE
Cosmos 2322 3.6 23:38:14 10° NNW 23:43:57 86° ENE 23:45:44 46° SSE
Cosmos 1898 Rocket 3.8 23:40:06 10° NNW 23:45:15 61° ENE 23:47:02 38° SE
Cosmos 1937 Rocket 4.2 23:45:19 10° NNW 23:50:26 49° ENE 23:52:45 29° ESE
Cosmos 2221 3.1 23:47:55 10° NNW 23:52:04 43° W 23:52:14 43° W
COSMOS 2455 4.2 23:46:59 10° NNW 23:52:32 37° NE 23:58:02 10° ESE
PSLV R/B 4.1 23:50:01 10° N 23:54:39 56° WNW 23:55:36 47° WSW
